Year,Month,Day,Hour,Minute,Value (Times are PST for windgust in km/hr)
2016,03,03,05,50,3.20
2016,03,03,05,51,1.60
2016,03,03,05,58,1.60
2016,03,03,06,14,6.40
2016,03,03,06,15,4.80
2016,03,03,06,16,4.80
2016,03,03,06,22,6.40
2016,03,03,06,23,4.80
2016,03,03,06,24,3.20
2016,03,03,08,29,12.90
2016,03,03,08,30,11.30
2016,03,03,08,31,3.20
2016,03,03,08,32,8.10
2016,03,03,08,33,9.60
2016,03,03,08,34,9.60
2016,03,03,08,35,12.90
2016,03,03,08,36,16.10
2016,03,03,08,37,12.90
2016,03,03,08,38,24.20
2016,03,03,08,39,16.10
2016,03,03,08,40,20.90
2016,03,03,08,41,11.30
2016,03,03,08,42,12.90
2016,03,03,08,43,12.90
2016,03,03,08,44,9.60
2016,03,03,08,45,3.20
2016,03,03,08,51,6.40
2016,03,03,08,52,11.30
2016,03,03,08,53,9.60
2016,03,03,08,55,11.30
2016,03,03,08,56,11.30
2016,03,03,08,57,3.20
2016,03,03,08,58,6.40
2016,03,03,08,59,8.10
2016,03,03,09,00,9.60
2016,03,03,09,01,11.30
2016,03,03,09,02,9.60
2016,03,03,09,03,8.10
2016,03,03,09,04,11.30
2016,03,03,09,05,6.40
2016,03,03,09,12,8.10
2016,03,03,09,13,8.10
2016,03,03,09,25,9.60
2016,03,03,09,26,12.90
2016,03,03,09,27,6.40
2016,03,03,09,28,9.60
2016,03,03,09,29,9.60
2016,03,03,09,30,9.60
2016,03,03,09,31,11.30
2016,03,03,09,32,12.90
2016,03,03,09,33,12.90
2016,03,03,09,34,9.60
2016,03,03,09,35,8.10
2016,03,03,09,36,9.60
2016,03,03,09,37,9.60
2016,03,03,09,39,6.40
2016,03,03,09,40,20.90
2016,03,03,09,41,11.30
2016,03,03,09,42,8.10
2016,03,03,09,43,9.60
2016,03,03,09,44,6.40
2016,03,03,09,45,8.10
2016,03,03,09,46,11.30
2016,03,03,09,47,6.40
2016,03,03,09,48,6.40
2016,03,03,09,49,8.10
2016,03,03,09,50,11.30
2016,03,03,09,51,8.10
2016,03,03,09,52,8.10
2016,03,03,09,53,9.60
2016,03,03,09,54,6.40
2016,03,03,09,56,8.10
2016,03,03,09,57,8.10
2016,03,03,09,58,6.40
2016,03,03,09,59,3.20
2016,03,03,10,00,9.60
2016,03,03,10,01,9.60
2016,03,03,10,02,9.60
2016,03,03,10,03,11.30
2016,03,03,10,04,1.60
2016,03,03,10,05,6.40
2016,03,03,10,06,8.10
2016,03,03,10,07,6.40
2016,03,03,10,12,9.60
2016,03,03,10,13,14.50
2016,03,03,10,14,9.60
2016,03,03,10,15,9.60
2016,03,03,10,16,11.30
2016,03,03,10,17,9.60
2016,03,03,10,18,12.90
2016,03,03,10,19,6.40
2016,03,03,10,20,12.90
2016,03,03,10,21,11.30
2016,03,03,10,22,11.30
2016,03,03,10,23,14.50
2016,03,03,10,24,8.10
2016,03,03,10,25,8.10
2016,03,03,10,26,8.10
2016,03,03,10,27,6.40
2016,03,03,10,28,8.10
2016,03,03,10,29,11.30
2016,03,03,10,30,17.70
2016,03,03,10,31,12.90
2016,03,03,10,33,8.10
2016,03,03,10,34,6.40
2016,03,03,10,36,8.10
2016,03,03,10,37,14.50
2016,03,03,10,38,8.10
2016,03,03,10,39,12.90
2016,03,03,10,40,9.60
2016,03,03,10,41,11.30
2016,03,03,10,42,12.90
2016,03,03,10,43,20.90
2016,03,03,10,44,14.50
2016,03,03,10,45,11.30
2016,03,03,10,46,6.40
2016,03,03,10,47,8.10
2016,03,03,10,49,8.10
2016,03,03,10,50,8.10
2016,03,03,10,52,14.50
2016,03,03,10,53,14.50
2016,03,03,10,54,9.60
2016,03,03,10,55,16.10
2016,03,03,10,56,11.30
2016,03,03,10,57,4.80
2016,03,03,10,58,8.10
2016,03,03,10,59,8.10
2016,03,03,11,00,19.30
2016,03,03,11,01,16.10
2016,03,03,11,02,14.50
2016,03,03,11,03,16.10
2016,03,03,11,04,24.20
2016,03,03,11,05,24.20
2016,03,03,11,06,19.30
2016,03,03,11,07,24.20
2016,03,03,11,08,24.20
2016,03,03,11,09,19.30
2016,03,03,11,10,17.70
2016,03,03,11,11,11.30
2016,03,03,11,12,19.30
2016,03,03,11,13,16.10
2016,03,03,11,14,19.30
2016,03,03,11,15,25.70
2016,03,03,11,16,19.30
2016,03,03,11,17,22.50
2016,03,03,11,18,20.90
2016,03,03,11,19,19.30
2016,03,03,11,20,19.30
2016,03,03,11,21,32.20
2016,03,03,11,22,22.50
2016,03,03,11,23,29.00
2016,03,03,11,24,29.00
2016,03,03,11,25,35.40
2016,03,03,11,26,24.20
2016,03,03,11,27,27.40
2016,03,03,11,28,30.60
2016,03,03,11,29,37.00
2016,03,03,11,30,33.80
2016,03,03,11,31,30.60
2016,03,03,11,32,22.50
2016,03,03,11,33,25.70
2016,03,03,11,34,19.30
2016,03,03,11,35,24.20
2016,03,03,11,36,19.30
2016,03,03,11,37,20.90
2016,03,03,11,38,19.30
2016,03,03,11,39,38.60
2016,03,03,11,40,43.50
2016,03,03,11,41,29.00
2016,03,03,11,42,24.20
2016,03,03,11,43,27.40
2016,03,03,11,44,16.10
2016,03,03,11,45,24.20
2016,03,03,11,46,17.70
2016,03,03,11,47,24.20
2016,03,03,11,48,19.30
2016,03,03,11,49,22.50
2016,03,03,11,50,33.80
2016,03,03,11,51,25.70
2016,03,03,11,52,27.40
2016,03,03,11,53,19.30
2016,03,03,11,54,22.50
2016,03,03,11,55,29.00
2016,03,03,11,56,27.40
2016,03,03,11,57,29.00
2016,03,03,11,58,32.20
2016,03,03,11,59,33.80
2016,03,03,12,00,32.20
2016,03,03,12,01,25.70
2016,03,03,12,02,29.00
2016,03,03,12,03,19.30
2016,03,03,12,04,35.40
2016,03,03,12,05,32.20
2016,03,03,12,06,33.80
2016,03,03,12,07,38.60
2016,03,03,12,08,16.10
2016,03,03,12,09,25.70
2016,03,03,12,10,20.90
2016,03,03,12,11,12.90
2016,03,03,12,12,19.30
2016,03,03,12,13,17.70
2016,03,03,12,14,25.70
2016,03,03,12,15,17.70
2016,03,03,12,16,16.10
2016,03,03,12,17,17.70
2016,03,03,12,18,16.10
2016,03,03,12,19,35.40
2016,03,03,12,20,22.50
2016,03,03,12,21,20.90
2016,03,03,12,22,32.20
2016,03,03,12,23,27.40
2016,03,03,12,24,17.70
2016,03,03,12,25,30.60
2016,03,03,12,26,24.20
2016,03,03,12,27,30.60
2016,03,03,12,28,33.80
2016,03,03,12,29,32.20
2016,03,03,12,30,24.20
2016,03,03,12,31,32.20
2016,03,03,12,32,33.80
2016,03,03,12,33,20.90
2016,03,03,12,34,30.60
2016,03,03,12,35,16.10
2016,03,03,12,36,19.30
2016,03,03,12,37,16.10
2016,03,03,12,38,14.50
2016,03,03,12,39,19.30
2016,03,03,12,40,19.30
2016,03,03,12,41,11.30
2016,03,03,12,42,20.90
2016,03,03,12,43,22.50
2016,03,03,12,44,33.80
2016,03,03,12,45,20.90
2016,03,03,12,46,27.40
2016,03,03,12,47,14.50
2016,03,03,12,48,12.90
2016,03,03,12,49,24.20
2016,03,03,12,50,22.50
2016,03,03,12,51,20.90
2016,03,03,12,52,29.00
2016,03,03,12,53,9.60
2016,03,03,12,54,40.20
2016,03,03,12,55,20.90
2016,03,03,12,56,20.90
2016,03,03,12,57,16.10
2016,03,03,12,58,27.40
2016,03,03,12,59,22.50
2016,03,03,13,00,22.50
2016,03,03,13,01,29.00
2016,03,03,13,02,25.70
2016,03,03,13,03,11.30
2016,03,03,13,04,19.30
2016,03,03,13,05,24.20
2016,03,03,13,06,40.20
2016,03,03,13,07,33.80
2016,03,03,13,08,32.20
2016,03,03,13,09,19.30
2016,03,03,13,10,17.70
2016,03,03,13,11,22.50
2016,03,03,13,12,29.00
2016,03,03,13,13,27.40
2016,03,03,13,14,24.20
2016,03,03,13,15,17.70
2016,03,03,13,16,24.20
2016,03,03,13,17,22.50
2016,03,03,13,18,9.60
2016,03,03,13,19,12.90
2016,03,03,13,20,8.10
2016,03,03,13,21,4.80
2016,03,03,13,22,8.10
2016,03,03,13,23,12.90
2016,03,03,13,24,11.30
2016,03,03,13,25,12.90
2016,03,03,13,26,14.50
2016,03,03,13,27,24.20
2016,03,03,13,28,19.30
2016,03,03,13,29,27.40
2016,03,03,13,30,22.50
2016,03,03,13,31,30.60
2016,03,03,13,32,27.40
2016,03,03,13,33,27.40
2016,03,03,13,34,17.70
2016,03,03,13,35,24.20
2016,03,03,13,36,20.90
2016,03,03,13,37,16.10
2016,03,03,13,38,24.20
2016,03,03,13,39,24.20
2016,03,03,13,40,24.20
2016,03,03,13,41,17.70
2016,03,03,13,42,16.10
2016,03,03,13,43,20.90
2016,03,03,13,44,22.50
2016,03,03,13,45,19.30
2016,03,03,13,46,14.50
2016,03,03,13,47,11.30
2016,03,03,13,48,14.50
2016,03,03,13,49,20.90
2016,03,03,13,50,24.20
2016,03,03,13,51,24.20
2016,03,03,13,52,22.50
2016,03,03,13,53,38.60
2016,03,03,13,54,24.20
2016,03,03,13,55,27.40
2016,03,03,13,56,19.30
2016,03,03,13,57,9.60
2016,03,03,13,58,16.10
2016,03,03,13,59,16.10
2016,03,03,14,00,24.20
2016,03,03,14,01,20.90
2016,03,03,14,02,16.10
2016,03,03,14,03,19.30
2016,03,03,14,04,20.90
2016,03,03,14,05,27.40
2016,03,03,14,06,22.50
2016,03,03,14,07,20.90
2016,03,03,14,08,16.10
2016,03,03,14,09,12.90
2016,03,03,14,10,19.30
2016,03,03,14,11,25.70
2016,03,03,14,12,17.70
2016,03,03,14,13,32.20
2016,03,03,14,14,20.90
2016,03,03,14,15,12.90
2016,03,03,14,16,16.10
2016,03,03,14,17,19.30
2016,03,03,14,18,11.30
2016,03,03,14,19,17.70
2016,03,03,14,20,24.20
2016,03,03,14,21,9.60
2016,03,03,14,22,29.00
2016,03,03,14,23,25.70
2016,03,03,14,24,19.30
2016,03,03,14,25,33.80
2016,03,03,14,26,22.50
2016,03,03,14,27,19.30
2016,03,03,14,28,19.30
2016,03,03,14,29,19.30
2016,03,03,14,30,17.70
2016,03,03,14,31,19.30
2016,03,03,14,32,14.50
2016,03,03,14,33,17.70
2016,03,03,14,34,12.90
2016,03,03,14,35,11.30
2016,03,03,14,36,14.50
2016,03,03,14,37,22.50
2016,03,03,14,38,9.60
2016,03,03,14,39,12.90
2016,03,03,14,40,3.20
2016,03,03,14,41,14.50
2016,03,03,14,42,14.50
2016,03,03,14,43,17.70
2016,03,03,14,44,19.30
2016,03,03,14,45,20.90
2016,03,03,14,46,27.40
2016,03,03,14,47,22.50
2016,03,03,14,48,24.20
2016,03,03,14,49,19.30
2016,03,03,14,50,16.10
2016,03,03,14,51,19.30
2016,03,03,14,52,9.60
2016,03,03,14,53,20.90
2016,03,03,14,54,17.70
2016,03,03,14,55,16.10
2016,03,03,14,56,16.10
2016,03,03,14,57,17.70
2016,03,03,14,58,19.30
2016,03,03,14,59,14.50
2016,03,03,15,00,20.90
2016,03,03,15,01,22.50
2016,03,03,15,02,19.30
2016,03,03,15,03,17.70
2016,03,03,15,04,9.60
2016,03,03,15,05,16.10
2016,03,03,15,06,17.70
2016,03,03,15,07,19.30
2016,03,03,15,08,11.30
2016,03,03,15,09,20.90
2016,03,03,15,10,11.30
2016,03,03,15,11,12.90
2016,03,03,15,12,14.50
2016,03,03,15,13,19.30
2016,03,03,15,14,16.10
2016,03,03,15,15,22.50
2016,03,03,15,16,16.10
2016,03,03,15,17,14.50
2016,03,03,15,18,25.70
2016,03,03,15,19,14.50
2016,03,03,15,20,12.90
2016,03,03,15,21,12.90
2016,03,03,15,22,17.70
2016,03,03,15,23,29.00
2016,03,03,15,24,19.30
2016,03,03,15,25,17.70
2016,03,03,15,26,29.00
2016,03,03,15,27,22.50
2016,03,03,15,28,30.60
2016,03,03,15,29,17.70
2016,03,03,15,30,24.20
2016,03,03,15,31,20.90
2016,03,03,15,32,24.20
2016,03,03,15,33,19.30
2016,03,03,15,34,20.90
2016,03,03,15,35,22.50
2016,03,03,15,36,12.90
2016,03,03,15,37,8.10
2016,03,03,15,38,9.60
2016,03,03,15,39,11.30
2016,03,03,15,40,9.60
2016,03,03,15,41,9.60
2016,03,03,15,42,14.50
2016,03,03,15,43,9.60
2016,03,03,15,44,14.50
2016,03,03,15,45,16.10
2016,03,03,15,46,17.70
2016,03,03,15,47,12.90
2016,03,03,15,48,20.90
2016,03,03,15,49,14.50
2016,03,03,15,50,9.60
2016,03,03,15,51,9.60
2016,03,03,15,52,11.30
2016,03,03,15,53,17.70
2016,03,03,15,54,16.10
2016,03,03,15,55,6.40
2016,03,03,15,56,6.40
2016,03,03,15,57,14.50
2016,03,03,15,58,14.50
2016,03,03,15,59,9.60
2016,03,03,16,00,11.30
2016,03,03,16,01,12.90
2016,03,03,16,02,8.10
2016,03,03,16,03,9.60
2016,03,03,16,04,3.20
2016,03,03,16,05,6.40
2016,03,03,16,06,9.60
2016,03,03,16,07,8.10
2016,03,03,16,08,6.40
2016,03,03,16,10,3.20
2016,03,03,16,11,12.90
2016,03,03,16,12,9.60
2016,03,03,16,13,11.30
2016,03,03,16,14,8.10
2016,03,03,16,15,6.40
2016,03,03,16,16,6.40
2016,03,03,16,17,8.10
2016,03,03,16,18,4.80
2016,03,03,16,19,4.80
2016,03,03,16,20,8.10
2016,03,03,16,21,6.40
2016,03,03,16,23,4.80
2016,03,03,16,25,9.60
2016,03,03,16,26,14.50
2016,03,03,16,27,8.10
2016,03,03,16,28,9.60
2016,03,03,16,29,17.70
2016,03,03,16,30,19.30
2016,03,03,16,31,14.50
2016,03,03,16,32,17.70
2016,03,03,16,33,14.50
2016,03,03,16,34,11.30
2016,03,03,16,35,9.60
2016,03,03,16,36,11.30
2016,03,03,16,37,6.40
2016,03,03,16,38,6.40
2016,03,03,16,39,9.60
2016,03,03,16,40,9.60
2016,03,03,16,41,9.60
2016,03,03,16,42,6.40
2016,03,03,16,43,4.80
2016,03,03,16,44,11.30
2016,03,03,16,45,12.90
2016,03,03,16,46,8.10
2016,03,03,16,47,6.40
2016,03,03,16,48,8.10
2016,03,03,16,49,3.20
2016,03,03,16,50,3.20
2016,03,03,16,51,6.40
2016,03,03,16,52,9.60
2016,03,03,16,53,3.20
2016,03,03,17,31,8.10
2016,03,03,17,32,6.40
2016,03,03,17,33,8.10
2016,03,03,17,34,11.30
2016,03,03,17,35,14.50
2016,03,03,17,36,14.50
2016,03,03,17,37,8.10
2016,03,03,17,38,12.90
2016,03,03,17,39,9.60
2016,03,03,17,40,9.60
2016,03,03,17,41,8.10
2016,03,03,17,42,3.20
2016,03,03,17,43,4.80
2016,03,03,17,44,9.60
2016,03,03,17,45,6.40
2016,03,03,17,46,11.30
2016,03,03,17,47,9.60
2016,03,03,17,48,11.30
2016,03,03,17,49,9.60
2016,03,03,19,40,6.40
2016,03,03,19,46,8.10
2016,03,03,19,47,3.20
2016,03,03,20,06,6.40
2016,03,03,20,07,1.60
2016,03,03,20,08,9.60
2016,03,03,20,11,3.20
2016,03,03,21,19,9.60
2016,03,03,21,20,8.10
2016,03,03,21,21,9.60
2016,03,03,21,22,3.20
2016,03,03,21,24,8.10
2016,03,03,21,28,6.40
2016,03,03,21,29,1.60
2016,03,03,21,36,9.60
2016,03,03,21,37,8.10
2016,03,03,21,38,6.40
2016,03,03,21,56,12.90
2016,03,03,21,57,12.90
2016,03,03,21,58,12.90
2016,03,03,21,59,8.10
2016,03,03,22,00,11.30
2016,03,03,22,01,3.20
2016,03,03,22,02,8.10
2016,03,03,22,03,1.60
2016,03,03,22,05,8.10
2016,03,03,22,06,3.20
2016,03,03,22,07,3.20
2016,03,03,22,58,8.10
2016,03,03,23,09,11.30
2016,03,03,23,10,8.10
2016,03,03,23,11,3.20
2016,03,03,23,30,1.60
2016,03,03,23,31,11.30
2016,03,03,23,32,9.60
2016,03,03,23,35,12.90
2016,03,03,23,36,16.10
2016,03,03,23,37,6.40
2016,03,03,23,38,6.40
2016,03,03,23,39,4.80
2016,03,03,23,40,6.40
2016,03,03,23,41,22.50
2016,03,03,23,42,19.30
2016,03,03,23,43,12.90
2016,03,03,23,44,6.40
2016,03,03,23,45,4.80
2016,03,03,23,48,11.30
2016,03,03,23,49,11.30
2016,03,03,23,50,11.30
2016,03,03,23,51,11.30
2016,03,03,23,52,8.10
2016,03,03,23,53,6.40
2016,03,03,23,54,4.80
2016,03,03,23,55,9.60
2016,03,03,23,56,9.60
2016,03,03,23,57,4.80
2016,03,03,23,59,19.30
